Tracking 19415 objects as of 15-Dec-2018
HD Live streaming from Space Station
objects crossing your sky now

ATS 6

Track ATS 6 now!
ATS 6 is classified as:


NORAD ID: 7318
Int'l Code: 1974-039A
Perigee: 35,202.2 km
Apogee: 35,441.7 km
Inclination: 8.5 °
Period: 1,412.1 minutes
Semi major axis: 41692 km
RCS: 6.3095 m2 (large)
Launch date: May 30, 1974
Source: United States (US)
Launch site: AIR FORCE EASTERN TEST RANGE (AFETR)
aabbcc
Your satellite tracking list
Your tracking list is empty




NASA's NSSDC Master Catalog

Two Line Element Set (TLE):
1  7318U 74039A   18348.83560449 -.00000122 +00000-0 +00000-0 0  9991
2  7318 008.5389 300.9631 0028719 249.1161 315.8917 01.01978710094042
Source of the keplerian elements: AFSPC